| time (UTC) | temp C | wind direction | speed KPH | gust KPH | rain 1hr cm | rain 24hr cm | rain mn cm | humidity % | barometer mb |
| 20260905181008 | 18 | 135 | 9.7 | 16.1 | 0.00 | 0.20 | 0.20 | 52 | 1018.8 |
| 20260905180010 | 18 | 135 | 8.0 | 14.5 | 0.00 | 0.20 | 0.20 | 53 | 1018.6 |
| 20260905174008 | 18 | 135 | 9.7 | 17.7 | 0.00 | 0.20 | 0.20 | 53 | 1018.4 |
| 20260905171007 | 20 | 135 | 6.4 | 12.9 | 0.00 | 0.20 | 0.20 | 49 | 1018.0 |
| 20260905170014 | 20 | 135 | 6.4 | 9.7 | 0.00 | 0.20 | 0.20 | 50 | 1017.7 |
| 20260905164007 | 20 | 135 | 8.0 | 14.5 | 0.00 | 0.20 | 0.20 | 49 | 1017.6 |
| 20260905163009 | 20 | 135 | 11.3 | 20.9 | 0.00 | 0.20 | 0.20 | 50 | 1017.5 |
| 20260905162006 | 21 | 135 | 11.3 | 17.7 | 0.00 | 0.20 | 0.20 | 47 | 1017.3 |
| 20260905161006 | 21 | 135 | 9.7 | 17.7 | 0.00 | 0.20 | 0.20 | 45 | 1017.3 |
| 20260905160013 | 21 | 135 | 8.0 | 20.9 | 0.00 | 0.20 | 0.20 | 46 | 1017.3 |
| 20260905154009 | 21 | 270 | 9.7 | 17.7 | 0.00 | 0.20 | 0.20 | 50 | 1017.2 |
| 20260905153007 | 21 | 135 | 12.9 | 19.3 | 0.00 | 0.20 | 0.20 | 51 | 1017.1 |
| 20260905152009 | 21 | 135 | 11.3 | 20.9 | 0.00 | 0.20 | 0.20 | 50 | 1017.1 |
| 20260905151008 | 21 | 270 | 9.7 | 20.9 | 0.00 | 0.20 | 0.20 | 52 | 1017.0 |
| 20260905150010 | 21 | 135 | 16.1 | 25.7 | 0.00 | 0.20 | 0.20 | 49 | 1017.0 |
| 20260905145010 | 21 | 135 | 16.1 | 25.7 | 0.00 | 0.20 | 0.20 | 48 | 1017.0 |
| 20260905144008 | 21 | 270 | 14.5 | 20.9 | 0.00 | 0.20 | 0.20 | 49 | 1016.9 |
| 20260905143009 | 22 | 135 | 14.5 | 20.9 | 0.00 | 0.20 | 0.20 | 49 | 1016.8 |
| 20260905141007 | 22 | 135 | 17.7 | 25.7 | 0.00 | 0.20 | 0.20 | 49 | 1016.6 |
| 20260905140013 | 21 | 270 | 16.1 | 25.7 | 0.00 | 0.20 | 0.20 | 49 | 1016.7 |
| 20260905135008 | 21 | 135 | 11.3 | 19.3 | 0.00 | 0.20 | 0.20 | 54 | 1017.0 |
| 20260905134007 | 22 | 0 | 17.7 | 29.0 | 0.00 | 0.20 | 0.20 | 49 | 1016.8 |
| 20260905133010 | 23 | 135 | 16.1 | 20.9 | 0.00 | 0.20 | 0.20 | 47 | 1016.7 |
| 20260905132008 | 23 | 270 | 19.3 | 30.6 | 0.00 | 0.20 | 0.20 | 49 | 1016.6 |
| 20260905131007 | 22 | 180 | 19.3 | 27.4 | 0.00 | 0.20 | 0.20 | 50 | 1016.8 |
| 20260905130014 | 20 | 270 | 16.1 | 22.5 | 0.00 | 0.20 | 0.20 | 57 | 1017.3 |
| 20260905125010 | 20 | 270 | 14.5 | 20.9 | 0.00 | 0.20 | 0.20 | 58 | 1017.2 |
| 20260905124008 | 22 | 135 | 11.3 | 19.3 | 0.00 | 0.20 | 0.20 | 55 | 1017.1 |
| 20260905123009 | 21 | 270 | 12.9 | 19.3 | 0.00 | 0.20 | 0.20 | 56 | 1017.2 |
| 20260905122008 | 21 | 135 | 16.1 | 22.5 | 0.00 | 0.20 | 0.20 | 54 | 1017.3 |
| 20260905121006 | 21 | 135 | 22.5 | 29.0 | 0.00 | 0.20 | 0.20 | 57 | 1017.4 |
| 20260905120012 | 22 | 135 | 17.7 | 25.7 | 0.00 | 0.20 | 0.20 | 53 | 1017.4 |
| 20260905115008 | 23 | 270 | 19.3 | 32.2 | 0.00 | 0.20 | 0.20 | 50 | 1017.3 |
| 20260905113010 | 21 | 135 | 19.3 | 27.4 | 0.00 | 0.20 | 0.20 | 60 | 1017.6 |
| 20260905112006 | 21 | 315 | 19.3 | 27.4 | 0.00 | 0.20 | 0.20 | 58 | 1017.6 |
| 20260905111006 | 21 | 270 | 16.1 | 20.9 | 0.00 | 0.20 | 0.20 | 57 | 1017.5 |
| 20260905110012 | 22 | 270 | 22.5 | 29.0 | 0.00 | 0.20 | 0.20 | 57 | 1017.4 |
| 20260905105009 | 21 | 135 | 16.1 | 24.1 | 0.00 | 0.20 | 0.20 | 62 | 1017.5 |
| 20260905104006 | 19 | 270 | 16.1 | 24.1 | 0.00 | 0.20 | 0.20 | 64 | 1017.7 |
| 20260905103013 | 20 | 270 | 16.1 | 22.5 | 0.00 | 0.20 | 0.20 | 64 | 1017.5 |
| 20260905102009 | 22 | 270 | 17.7 | 22.5 | 0.00 | 0.20 | 0.20 | 63 | 1017.3 |
| 20260905101008 | 20 | 270 | 17.7 | 29.0 | 0.00 | 0.20 | 0.20 | 69 | 1017.4 |
| 20260905100015 | 19 | 135 | 12.9 | 16.1 | 0.00 | 0.20 | 0.20 | 70 | 1017.6 |
| 20260905095006 | 20 | 270 | 17.7 | 24.1 | 0.00 | 0.20 | 0.20 | 68 | 1017.5 |
| 20260905094007 | 20 | 270 | 16.1 | 19.3 | 0.00 | 0.20 | 0.20 | 74 | 1017.5 |
| 20260905093009 | 18 | 225 | 14.5 | 24.1 | 0.00 | 0.20 | 0.20 | 75 | 1017.8 |
| 20260905092007 | 18 | 270 | 14.5 | 19.3 | 0.00 | 0.20 | 0.20 | 75 | 1017.8 |
| 20260905091008 | 19 | 270 | 19.3 | 32.2 | 0.00 | 0.20 | 0.20 | 74 | 1017.8 |
| 20260905090009 | 20 | 270 | 17.7 | 24.1 | 0.00 | 0.20 | 0.20 | 68 | 1017.4 |
| 20260905084009 | 19 | 270 | 17.7 | 25.7 | 0.00 | 0.20 | 0.20 | 75 | 1017.5 |
| 20260905083031 | 18 | 135 | 17.7 | 24.1 | 0.00 | 0.20 | 0.20 | 77 | 1017.5 |
| 20260905080017 | 18 | 270 | 16.1 | 24.1 | 0.00 | 0.20 | 0.20 | 79 | 1017.1 |
| 20260905075006 | 18 | 270 | 14.5 | 19.3 | 0.00 | 0.20 | 0.20 | 83 | 1017.1 |
| 20260905074007 | 17 | 270 | 14.5 | 19.3 | 0.00 | 0.20 | 0.20 | 85 | 1017.2 |
| 20260905073009 | 17 | 270 | 12.9 | 19.3 | 0.00 | 0.20 | 0.20 | 86 | 1017.0 |
| 20260905072008 | 16 | 270 | 12.9 | 17.7 | 0.00 | 0.20 | 0.20 | 86 | 1017.1 |
| 20260905071008 | 16 | 225 | 11.3 | 16.1 | 0.00 | 0.20 | 0.20 | 87 | 1017.2 |
| 20260905070010 | 16 | 270 | 11.3 | 17.7 | 0.00 | 0.20 | 0.20 | 87 | 1017.3 |
| 20260905065005 | 16 | 270 | 9.7 | 16.1 | 0.00 | 0.20 | 0.20 | 89 | 1017.2 |
| 20260905063008 | 15 | 270 | 8.0 | 16.1 | 0.00 | 0.20 | 0.20 | 93 | 1017.2 |
| 20260905062008 | 14 | 135 | 8.0 | 11.3 | 0.00 | 0.20 | 0.20 | 94 | 1017.4 |
| 20260905061009 | 13 | 135 | 8.0 | 11.3 | 0.00 | 0.20 | 0.20 | 95 | 1017.3 |
| 20260905060017 | 13 | 270 | 6.4 | 14.5 | 0.00 | 0.20 | 0.20 | 95 | 1017.2 |
| 20260905055008 | 13 | 135 | 6.4 | 11.3 | 0.00 | 0.20 | 0.20 | 94 | 1017.0 |
| 20260905054008 | 13 | 135 | 8.0 | 12.9 | 0.03 | 0.20 | 0.20 | 94 | 1016.9 |
| 20260905053011 | 13 | 270 | 6.4 | 8.0 | 0.03 | 0.20 | 0.20 | 95 | 1016.7 |
| 20260905052008 | 13 | 270 | 6.4 | 11.3 | 0.05 | 0.20 | 0.20 | 94 | 1016.5 |
| 20260905051005 | 13 | 270 | 6.4 | 12.9 | 0.08 | 0.20 | 0.20 | 94 | 1016.3 |
| 20260905050024 | 13 | 270 | 8.0 | 11.3 | 0.13 | 0.20 | 0.20 | 94 | 1016.1 |
| 20260905045009 | 13 | 270 | 6.4 | 9.7 | 0.13 | 0.20 | 0.20 | 93 | 1015.9 |
| 20260905044007 | 13 | 180 | 8.0 | 12.9 | 0.13 | 0.18 | 0.18 | 94 | 1016.1 |
| 20260905042007 | 14 | 270 | 9.7 | 16.1 | 0.13 | 0.15 | 0.15 | 93 | 1016.1 |
| 20260905041008 | 15 | 270 | 9.7 | 16.1 | 0.10 | 0.13 | 0.13 | 94 | 1016.2 |
| 20260905040011 | 15 | 0 | 6.4 | 11.3 | 0.05 | 0.08 | 0.08 | 94 | 1016.0 |
| 20260905035007 | 15 | 270 | 6.4 | 9.7 | 0.05 | 0.08 | 0.08 | 94 | 1016.0 |
| 20260905034008 | 15 | 45 | 6.4 | 9.7 | 0.05 | 0.05 | 0.05 | 93 | 1016.0 |
| 20260905033007 | 15 | 0 | 4.8 | 11.3 | 0.03 | 0.03 | 0.03 | 92 | 1015.8 |
| 20260905032009 | 15 | 0 | 1.6 | 4.8 | 0.03 | 0.03 | 0.03 | 92 | 1015.1 |
| 20260905031008 | 15 | 0 | 3.2 | 6.4 | 0.03 | 0.03 | 0.03 | 91 | 1014.8 |
| 20260905030017 | 15 | 0 | 1.6 | 4.8 | 0.03 | 0.03 | 0.03 | 93 | 1014.9 |
| 20260905025007 | 16 | 270 | 3.2 | 6.4 | 0.03 | 0.03 | 0.03 | 93 | 1015.0 |
| 20260905024006 | 16 | 225 | 4.8 | 6.4 | 0.00 | 0.00 | 0.00 | 92 | 1014.8 |
| 20260905023010 | 16 | 270 | 4.8 | 6.4 | 0.00 | 0.00 | 0.00 | 90 | 1014.8 |
| 20260905022005 | 16 | 270 | 4.8 | 6.4 | 0.00 | 0.00 | 0.00 | 89 | 1014.4 |
| 20260905021007 | 16 | 0 | 6.4 | 11.3 | 0.00 | 0.00 | 0.00 | 87 | 1014.6 |
| 20260905020021 | 17 | 270 | 6.4 | 9.7 | 0.00 | 0.00 | 0.00 | 84 | 1014.7 |
| 20260905015008 | 17 | 0 | 3.2 | 6.4 | 0.00 | 0.00 | 0.00 | 82 | 1014.1 |
| 20260905013011 | 17 | 135 | 6.4 | 9.7 | 0.00 | 0.00 | 0.00 | 80 | 1014.1 |
| 20260905012005 | 17 | 0 | 6.4 | 8.0 | 0.00 | 0.00 | 0.00 | 80 | 1014.2 |
| 20260905011008 | 17 | 135 | 4.8 | 6.4 | 0.00 | 0.00 | 0.00 | 80 | 1014.1 |
| 20260905005006 | 17 | 0 | 6.4 | 11.3 | 0.00 | 0.00 | 0.00 | 77 | 1013.6 |
| 20260905003015 | 18 | 0 | 8.0 | 14.5 | 0.00 | 0.00 | 0.00 | 77 | 1013.6 |
| 20260905002007 | 18 | 270 | 8.0 | 17.7 | 0.00 | 0.00 | 0.00 | 77 | 1013.2 |
| 20260905001010 | 18 | 135 | 6.4 | 12.9 | 0.00 | 0.00 | 0.00 | 76 | 1013.2 |
| 20260905000013 | 18 | 135 | 8.0 | 16.1 | 0.00 | 0.00 | 0.00 | 73 | 1013.0 |
| 20260904235008 | 19 | 270 | 6.4 | 12.9 | 0.00 | 0.00 | 0.00 | 69 | 1012.7 |
| 20260904234009 | 19 | 135 | 6.4 | 9.7 | 0.00 | 0.00 | 0.00 | 69 | 1012.3 |
| 20260904233013 | 20 | 0 | 6.4 | 9.7 | 0.00 | 0.00 | 0.00 | 68 | 1011.9 |
| 20260904232007 | 20 | 45 | 3.2 | 8.0 | 0.00 | 0.00 | 0.00 | 70 | 1011.9 |
| 20260904231008 | 19 | 45 | 3.2 | 9.7 | 0.00 | 0.00 | 0.00 | 71 | 1011.7 |
| 20260904230011 | 19 | 0 | 6.4 | 11.3 | 0.00 | 0.00 | 0.00 | 71 | 1011.2 |
| 20260904225005 | 20 | 0 | 6.4 | 12.9 | 0.00 | 0.00 | 0.00 | 71 | 1011.1 |
| 20260904224007 | 20 | 135 | 6.4 | 11.3 | 0.00 | 0.00 | 0.00 | 69 | 1010.8 |
| 20260904223010 | 20 | 135 | 4.8 | 8.0 | 0.00 | 0.00 | 0.00 | 72 | 1010.5 |
| 20260904220017 | 20 | 270 | 3.2 | 4.8 | 0.00 | 0.00 | 0.00 | 76 | 1009.7 |
| 20260904215006 | 20 | 0 | 1.6 | 4.8 | 0.00 | 0.00 | 0.00 | 76 | 1009.4 |
| 20260904214005 | 20 | 135 | 1.6 | 4.8 | 0.00 | 0.00 | 0.00 | 74 | 1009.4 |
| 20260904213009 | 21 | 135 | 1.6 | 4.8 | 0.00 | 0.00 | 0.00 | 73 | 1009.1 |
| 20260904212005 | 21 | 270 | 3.2 | 6.4 | 0.00 | 0.00 | 0.00 | 70 | 1009.0 |
| 20260904211005 | 22 | 135 | 4.8 | 9.7 | 0.00 | 0.00 | 0.00 | 68 | 1008.9 |
| 20260904210010 | 22 | 270 | 6.4 | 11.3 | 0.00 | 0.00 | 0.00 | 65 | 1008.9 |
| 20260904205007 | 22 | 135 | 4.8 | 6.4 | 0.00 | 0.00 | 0.00 | 64 | 1008.6 |
| 20260904204005 | 22 | 180 | 4.8 | 8.0 | 0.00 | 0.00 | 0.00 | 62 | 1008.3 |
| 20260904203008 | 22 | 180 | 3.2 | 6.4 | 0.00 | 0.00 | 0.00 | 63 | 1008.4 |
| 20260904202006 | 22 | 270 | 1.6 | 4.8 | 0.00 | 0.00 | 0.00 | 65 | 1008.6 |
| 20260904201008 | 22 | 225 | 0.0 | 4.8 | 0.00 | 0.00 | 0.00 | 66 | 1008.7 |
| 20260904200011 | 22 | 225 | 1.6 | 4.8 | 0.00 | 0.00 | 0.00 | 66 | 1008.8 |
| 20260904195005 | 22 | 225 | 0.0 | 3.2 | 0.00 | 0.00 | 0.00 | 66 | 1008.9 |
| 20260904194008 | 22 | 225 | 1.6 | 4.8 | 0.00 | 0.00 | 0.00 | 66 | 1008.9 |
| 20260904193010 | 22 | 225 | 1.6 | 6.4 | 0.00 | 0.00 | 0.00 | 66 | 1009.0 |
| 20260904192008 | 22 | 315 | 3.2 | 4.8 | 0.00 | 0.00 | 0.00 | 65 | 1008.8 |
| 20260904191006 | 22 | 225 | 1.6 | 4.8 | 0.00 | 0.00 | 0.00 | 65 | 1008.8 |
| 20260904190013 | 23 | 225 | 1.6 | 3.2 | 0.00 | 0.00 | 0.00 | 63 | 1008.7 |
| 20260904185009 | 23 | 225 | 3.2 | 8.0 | 0.00 | 0.00 | 0.00 | 63 | 1008.8 |
| 20260904184006 | 23 | 225 | 3.2 | 6.4 | 0.00 | 0.00 | 0.00 | 61 | 1008.7 |